Orbital Elements at Epoch 2459200.5 (2020-Dec-17.0) TDB
Reference: JPL 14 (heliocentric ecliptic J2000)
Element | Value | Uncertainty (1-sigma) | Units |
e | .2169843284021465 | 3.2054e-08 | |
a | 2.374871249097505 | 9.0823e-09 | au |
q | 1.859561406070516 | 7.9209e-08 | au |
i | 1.719135839034444 | 4.2499e-06 | deg |
node | 69.14740935747723 | 0.00016741 | deg |
peri | 228.8996530590613 | 0.00016797 | deg |
M | 1.568630787796189 | 1.362e-05 | deg |
tp | 2459194.675257034265 (2020-Dec-11.17525703) | 5.0574e-05 | TDB |
period | 1336.775667020115 3.66 | 7.6684e-06 2.099e-08 | d yr |
n | .2693047224613963 | 1.5449e-09 | deg/d |
Q | 2.890181092124494 | 1.1053e-08 | au |
|
| | Orbit Determination Parameters
Additional Information
|